Regional Weather Roundup
Issued by NWS

Home | Current Version | Previous Version | Graphics & Text | Print | Product List | Glossary On
Versions: 1 2 3 4 5 6 7 8 9 10 11 12 13 14 15 16 17 18 19 20 21 22 23 24 25 26 27 28 29 30 31 32 33 34 35 36 37 38 39 40 41 42 43 44 45 46 47 48 49 50
000
ASUS43 KFSD 221802
RWRSD

WEATHER ROUNDUP FOR SOUTH DAKOTA
NATIONAL WEATHER SERVICE SIOUX FALLS SD
100 PM CDT TUE JUL 22 2014

NOTE: "FAIR" INDICATES FEW OR NO CLOUDS BELOW 12,000 FEET WITH NO
SIGNIFICANT WEATHER AND/OR OBSTRUCTIONS TO VISIBILITY.


SDZ001>005-009-010-012>017-221900-
NORTHWEST AND NORTH CENTRAL SOUTH DAKOTA

CITY           SKY/WX    TMP DP  RH WIND       PRES   REMARKS
BUFFALO          N/A     84  57  39 SE10      30.16F
FAITH            N/A     79  61  53 NE7       30.22R
MOBRIDGE       SUNNY     78  61  55 VRB3      30.17S
$$

SDZ012>016-024>037-041>051-057-063-072>074-221900-
SOUTHWEST AND SOUTH CENTRAL SOUTH DAKOTA

CITY           SKY/WX    TMP DP  RH WIND       PRES   REMARKS
RAPID CTY ARPT SUNNY     82  61  48 E6        30.23S
PIERRE         SUNNY     82  61  48 NE13      30.16R
CUSTER         SUNNY     81  50  33 MISG      30.36S
ELLSWORTH AFB  SUNNY     82  59  45 VRB2      30.24R
PHILIP         SUNNY     83  62  49 E7        30.18S
PINE RIDGE     SUNNY     81  61  50 VRB6      30.24R
WINNER         FAIR      80  63  55 NE10      30.19R
$$

SDZ004>011-016>023-039-040-221900-
NORTHEAST SOUTH DAKOTA

CITY           SKY/WX    TMP DP  RH WIND       PRES   REMARKS
ABERDEEN       MOSUNNY   77  60  55 NE15      30.15S
WATERTOWN      MOSUNNY   78  55  44 NE17      30.14R
SISSETON         N/A     78  58  49 N17       30.12R
$$

SDZ017-020-022-023-036>040-048>070-221900-
SOUTHEAST SOUTH DAKOTA

CITY           SKY/WX    TMP DP  RH WIND       PRES   REMARKS
SIOUX FALLS    PTSUNNY   78  65  63 N10       30.10F
HURON          PTSUNNY   79  60  52 N17G25    30.13R
CHAMBERLAIN    SUNNY     78  64  60 N8        30.16R
MITCHELL       PTSUNNY   79  65  62 NE13G21   30.13R
YANKTON        MOSUNNY   81  66  61 N7        30.10R
$$

ABBREVIATIONS USED IN REMARKS
   TC - TEMPERATURE IN CELSIUS
  WCI - WIND CHILL INDEX
   HX - HEAT INDEX
  VSB - VISIBILITY




USA.gov is the U.S. government's official web portal to all federal, state and local government web resources and services.